SCP
0 0 0 0 0 0 0 0 0 0 0 0 0 0 0 0 0 0 0 0 0 0 0 0 0 0 0 0 0 0 0 0 0 0 0 0 0 0
0 0 0 0 0 0 0 0 0 0 0 0 0 0 0 0 0 0 0 0 0 0 0 0 0 0 0 0 0 0 0 0 0 0 0 0 0 0
0 0 0 0 0 0 0 0 0 0 0 0 0 0 0 0 0 0 0 0 0 0 0 0 0 0 0 0 0 0 0 0 0 0 0 0 0 0
0 0 0 0 0 0 0 0 0 0 0 0 0 0 0 0 0 0 0 0 0 0 0 0 0 0 0 0 0 0 0 0 0 0 0 0 0 0
0 0 0 0 0 0 0 0 0 0 0 0 0 0 0 0 0 0 0 0 0 0 0 0 0 0 0 0 0 0 0 0 0 0 0 0 0 0
0 0 0 0 0 0 0 0 0 0 0 0 0 0 0 0 0 0 0 0 0 0 0 0 0 0 0 0 0 0 0 0 0 0 0 0 0 0
0 0 0 0 0 0 0 0 0 0 0 0 0 0 0 0 0 0 0 0 0 0 0 0 0 0 0 0 0 0 0 0 0 0 0 0 0 0
0 0 0 0 0 0 0 0 0 0 0 0 0 0 0 0 0 0 0 0 0 0 0 0 0 0 0 0 0 0 0 0 0 0 0 0 0 0
0 0 0 0 0 0 0 0 0 0 0 0 0 0 0 0 0 0 0 0 0 0 0 0 0 0 0 0 0 0 0 0 0 0 0 0 0 0
0 0 0 0 0 0 0 0 0 0 0 0 0 0 0 0 0 0 0 0 0 0 0 0 0 0 0 0 0 0 0 0 0 0 0 0 0 0
0 0 0 0 0 0 0 0 0 0 0 0 0 0 0 0 0 0 0 0 0 0 0 0 0 0 0 0 0 0 0 0 0 0 0 0 0 0
0 0 0 0 0 0 0 0 0 0 0 0 0 0 0 0 0 0 0 0 0 0 0 0 0 0 0 0 0 0 0 0 0 0 0 0 0 0
0 0 0 0 0 0 0 0 0 0 0 0 0 0 0 0 0 0 0 0 0 0 0 0 0 0 0 0 0 0 0 0 0 0 0 0 0 0
0 0 0 0 0 0 0 0 0 0 0 0 0 0 0 0 0 0 0 0 0 0 0 0 0 0 0 0 0 0 0 0 0 0 0 0 0 0
0 0 0 0 0 0 0 0 0 0 0 0 0 0 0 0 0 0 0 0 0 0 0 0 0 0 0 0 0 0 0 0 0 0 0 0 0 0
0 0 0 0 0 0 0 0 0 0 0 0 0 0 0 0 0 0 0 0 0 0 0 0 0 0 0 0 0 0 0 0 0 0 0 0 0 0
0 0 0 0 0 0 0 0 0 0 0 0 0 0 0 0 0 0 0 0 0 0 0 0 0 0 0 0 0 0 0 0 0 0 0 0 0 0
0 0 0 0 0 0 0 0 0 0 0 0 0 0 0 0 0 0 0 0 0 0 0 0 0 0 0 0 0 0 0 0 0 0 0 0 0 0
0 0 0 0 0 0 0 0 0 0 0 0 0 0 0 0 0 0 0 0 0 0 0 0 0 0 0 0 0 0 0 0 0 0 0 0 0 0
0 0 0 0 0 0 0 0 0 0 0 0 0 0 0 0 0 0 0 0 0 0 0 0 0 0 0 0 0 0 0 0 0 0 0 0 0 0
0 0 0 0 0 0 0 0 0 0 0 0 0 0 0 0 0 0 0 0 0 0 0 0 0 0 0 0 0 0 0 0 0 0 0 0 0 0
0 0 0 0 0 0 0 0 0 0 0 0 0 0 0 0 0 0 0 0 0 0 0 0 0 0 0 0 0 0 0 0 0 0 0 0 0 0
0 0 0 0 0 0 0 0 0 0 0 0 0 0 0 0 0 0 0 0 0 0 0 0 0 0 0 0 0 0 0 0 0 0 0 0 0 0
Wind_Speed
5 5 4 3 3 3 3 3 4 4 3 3 3 3 2 2 3 3 3 7 6 5 5 4 4 5 5 5 4 5 5 6 6 6 6 6 6 6
3 3 4 3 3 3 3 3 3 4 3 2 2 2 2 2 4 4 3 7 8 7 6 5 5 5 6 5 5 5 5 6 6 7 6 7 7 7
4 5 5 4 3 3 3 3 3 3 4 3 2 2 3 4 2 4 4 5 5 9 7 6 6 6 6 6 6 6 6 6 6 6 7 7 7 7
5 5 5 4 4 4 3 3 3 3 4 4 3 3 3 4 3 5 4 4 4 9 9 8 8 7 7 7 7 7 7 7 7 7 7 8 8 8
5 5 5 4 4 3 4 3 3 3 3 4 4 2 3 3 4 5 4 3 5 6 10 11 10 9 9 8 8 8 8 8 8 8 8 8 8 8
5 5 5 4 4 4 4 4 4 4 4 4 4 3 3 3 4 4 4 4 4 4 4 5 8 11 11 10 10 10 10 9 9 9 9 9 9 9
5 5 5 4 3 3 4 3 4 4 4 4 4 4 3 3 4 4 4 3 4 4 4 5 6 7 8 11 12 11 10 10 10 9 10 10 10 10
5 5 5 6 5 5 5 5 5 5 5 5 4 4 4 5 4 4 4 4 4 3 4 5 5 5 6 6 8 10 11 10 10 10 10 10 10 11
4 5 5 3 5 6 6 7 8 8 7 7 7 6 5 5 4 6 5 5 5 3 4 6 5 6 6 5 9 10 11 11 10 11 11 11 11 11
5 4 4 3 3 4 5 6 7 7 7 8 7 7 6 4 5 6 6 6 7 6 5 6 5 5 5 4 10 11 11 12 11 11 11 11 11 11
5 5 5 5 2 2 6 6 6 6 6 7 6 5 4 5 5 5 6 6 6 5 4 5 5 5 5 5 6 12 12 12 12 12 11 11 10 10
5 5 4 4 2 4 6 6 7 6 5 4 5 6 7 7 9 8 7 6 6 5 4 4 5 4 5 4 4 4 7 10 12 12 12 11 10 8
4 4 2 5 4 5 6 6 6 6 6 6 5 5 5 5 6 7 7 7 7 6 3 4 5 4 5 5 4 4 4 4 6 7 11 12 12 10
4 3 1 4 4 5 6 5 4 5 6 6 5 5 5 5 5 6 6 7 7 7 6 5 5 5 6 6 5 4 4 5 5 5 5 9 11 12
3 2 1 4 5 6 7 6 6 6 6 5 5 5 4 4 4 5 6 7 8 8 7 8 8 6 7 7 7 6 5 5 5 5 5 5 5 6
4 3 5 6 6 5 4 5 6 5 5 5 5 4 4 4 5 5 5 5 6 6 7 8 8 7 7 7 7 7 6 6 5 5 5 5 6 6
3 3 3 3 3 3 3 3 3 4 5 5 4 4 4 5 5 4 4 5 6 6 5 5 6 6 8 7 7 7 7 6 6 5 5 6 6 7
3 3 3 3 3 3 3 3 3 3 4 4 4 4 5 5 5 4 4 5 6 6 6 5 5 5 6 7 7 8 7 7 6 5 6 7 7 7
4 3 3 3 3 3 3 3 4 3 3 4 4 5 5 5 5 5 5 5 6 6 6 5 5 6 7 7 6 7 7 6 6 6 6 7 8 7
4 4 3 3 3 3 3 3 3 3 3 4 4 5 5 5 5 5 5 6 6 6 6 6 6 6 7 7 6 5 8 8 7 7 6 6 7 6
3 3 3 3 3 3 3 4 4 4 4 4 4 4 5 5 5 6 6 6 7 7 7 6 4 5 7 6 7 7 6 8 8 7 7 7 7 7
3 3 3 3 3 3 3 4 4 4 4 4 4 5 5 5 6 7 6 6 6 6 7 6 5 5 7 8 8 8 7 6 7 9 9 9 7 7
3 3 3 3 3 3 3 4 4 4 4 4 4 5 5 5 6 6 6 7 7 7 6 6 5 5 7 7 8 8 9 8 6 6 6 8 10 9
Wind_Direction
208 207 227 219 228 235 245 254 262 253 225 190 205 183 216 205 157 206 206 157 182 193 197 202 206 210 214 217 215 211 214 218 216 219 223 226 224 223
215 217 227 226 223 230 240 246 258 268 268 232 216 188 218 240 179 219 225 172 193 195 198 207 214 217 218 217 217 214 214 218 219 223 224 226 226 226
219 216 222 229 232 234 236 240 250 256 254 252 224 189 209 245 213 230 225 219 192 184 195 207 216 220 222 222 221 219 218 218 220 222 224 226 227 228
222 226 226 219 227 243 244 245 244 252 252 255 245 221 217 226 226 233 229 225 228 171 191 206 215 219 221 224 223 223 224 223 223 224 225 226 226 227
223 224 224 224 233 239 248 247 242 239 251 251 247 234 224 221 227 230 230 235 243 186 192 203 210 217 219 221 222 223 223 224 227 227 226 226 228 228
227 223 222 224 229 236 237 244 254 254 245 247 244 234 223 212 229 233 228 222 241 232 214 216 206 211 218 219 220 222 223 223 226 228 229 229 229 228
232 229 224 222 236 249 259 250 252 258 254 251 249 242 229 221 235 245 247 241 231 238 239 230 215 222 215 214 217 219 221 222 225 228 230 229 228 228
239 238 227 209 210 223 247 259 259 254 262 266 259 252 244 240 242 251 258 254 252 227 249 250 241 240 237 231 191 196 212 220 225 229 231 229 229 231
234 239 245 229 221 233 223 226 236 239 244 261 270 268 262 249 247 247 246 256 268 266 253 256 246 247 244 217 176 195 210 219 225 228 230 230 229 228
233 229 240 241 243 256 249 244 245 237 233 238 254 261 265 264 242 249 253 248 254 244 237 258 256 255 257 236 181 198 211 218 222 226 227 227 226 228
240 231 231 238 206 244 254 251 253 250 232 232 253 267 279 249 242 246 242 245 251 244 223 253 265 268 260 248 200 195 211 217 221 223 224 224 224 228
237 229 214 238 201 211 248 255 256 262 265 243 232 230 233 222 215 230 241 246 256 254 210 234 258 268 264 244 229 201 212 216 219 221 221 219 213 227
248 243 215 164 201 221 247 258 265 276 264 255 247 235 224 221 217 226 239 246 253 259 241 229 256 260 267 269 253 236 231 231 218 219 217 214 209 222
258 258 200 156 212 232 242 258 261 257 251 249 248 243 238 233 228 228 236 245 253 260 270 265 266 263 268 273 272 260 244 243 238 233 223 197 208 219
271 294 237 200 230 235 231 236 237 238 245 248 252 252 251 248 244 232 232 235 241 245 244 242 251 257 259 266 271 272 267 256 243 238 232 223 221 216
253 225 199 207 231 251 237 219 229 246 257 256 255 256 253 243 237 239 240 238 243 241 230 232 239 249 256 262 268 269 265 262 253 246 249 249 241 234
274 257 248 232 230 235 238 234 232 233 236 247 254 259 255 250 246 241 247 253 254 257 246 228 227 230 244 257 262 261 263 262 259 253 246 251 250 243
251 250 254 252 252 252 251 249 245 248 249 248 250 251 257 259 256 250 244 249 257 259 259 251 241 235 238 237 232 255 261 264 264 253 248 252 252 246
234 247 254 256 264 269 262 259 257 252 257 259 255 250 252 256 256 254 251 253 259 263 263 256 246 248 254 259 237 217 250 263 262 259 251 252 256 256
243 251 253 254 254 255 256 258 259 255 249 254 256 253 253 256 258 258 255 258 263 263 262 258 252 252 260 271 279 256 223 249 258 259 258 256 257 251
244 249 257 260 255 251 252 255 257 255 257 258 257 259 258 256 258 257 256 255 260 264 265 264 263 255 263 263 267 265 247 220 240 252 257 257 257 253
260 254 255 261 261 261 260 256 252 254 256 257 263 265 266 263 260 258 261 262 258 261 268 272 263 258 258 256 262 267 265 255 234 233 246 252 257 257
258 261 257 253 250 252 257 261 265 262 263 265 269 269 269 269 268 264 262 261 262 264 268 270 270 265 264 261 263 266 267 264 260 246 241 230 226 237